Location: ??
(36.7391°N, 127.5151°E)
Time: 12:06:27
(UTC+00:00)

Cosmos 1378 Rocket - Pass Details

Date: 07 June 2020
Orbit: 601 x 627 km, 82.5° (Epoch: 14 July)

Event Time Altitude Azimuth Distance (km) Brightness Sun altitude
Exits shadow 11:33:34 - 173° (S) 2,762 6.5 -8.6°
Reaches altitude 10° 11:35:32 10° 168° (SSE) 1,978 5.7 -8.9°
Maximum altitude 11:39:46 50° 93° (E) 786 3.8 -9.6°
Drops below altitude 10° 11:44:00 10° 18° (NNE) 1,976 6.4 -10.3°
Sets 11:46:15 0° 13° (NNE) 2,880 7.4 -10.6°
